Year,Month,Day,Hour,Minute,Value (Times are PST for temperature in C)
2019,10,27,00,00,7.00
2019,10,27,00,01,7.00
2019,10,27,00,02,7.00
2019,10,27,00,03,7.00
2019,10,27,00,04,7.00
2019,10,27,00,05,7.00
2019,10,27,00,06,7.00
2019,10,27,00,07,7.10
2019,10,27,00,08,7.10
2019,10,27,00,09,7.00
2019,10,27,00,10,7.00
2019,10,27,00,11,7.00
2019,10,27,00,12,7.00
2019,10,27,00,13,7.00
2019,10,27,00,14,6.90
2019,10,27,00,15,6.90
2019,10,27,00,16,6.90
2019,10,27,00,17,6.90
2019,10,27,00,18,6.90
2019,10,27,00,19,6.90
2019,10,27,00,20,6.90
2019,10,27,00,21,6.80
2019,10,27,00,22,6.80
2019,10,27,00,23,6.80
2019,10,27,00,24,6.70
2019,10,27,00,25,6.70
2019,10,27,00,26,6.70
2019,10,27,00,27,6.70
2019,10,27,00,28,6.70
2019,10,27,00,29,6.70
2019,10,27,00,30,6.70
2019,10,27,00,31,6.80
2019,10,27,00,32,6.80
2019,10,27,00,33,6.80
2019,10,27,00,34,6.90
2019,10,27,00,35,6.90
2019,10,27,00,36,7.00
2019,10,27,00,37,7.00
2019,10,27,00,38,7.10
2019,10,27,00,39,7.20
2019,10,27,00,40,7.20
2019,10,27,00,41,7.30
2019,10,27,00,42,7.30
2019,10,27,00,43,7.20
2019,10,27,00,44,7.20
2019,10,27,00,45,7.30
2019,10,27,00,46,7.30
2019,10,27,00,47,7.30
2019,10,27,00,48,7.30
2019,10,27,00,49,7.20
2019,10,27,00,50,7.20
2019,10,27,00,51,7.20
2019,10,27,00,52,7.20
2019,10,27,00,53,7.20
2019,10,27,00,54,7.20
2019,10,27,00,55,7.20
2019,10,27,00,56,7.20
2019,10,27,00,57,7.20
2019,10,27,00,58,7.10
2019,10,27,00,59,7.10
2019,10,27,01,00,7.10
2019,10,27,01,01,7.00
2019,10,27,01,02,6.90
2019,10,27,01,03,6.90
2019,10,27,01,04,6.80
2019,10,27,01,05,6.80
2019,10,27,01,06,6.80
2019,10,27,01,07,6.80
2019,10,27,01,08,6.80
2019,10,27,01,09,6.70
2019,10,27,01,10,6.70
2019,10,27,01,11,6.70
2019,10,27,01,12,6.70
2019,10,27,01,13,6.70
2019,10,27,01,14,6.80
2019,10,27,01,15,6.80
2019,10,27,01,16,6.80
2019,10,27,01,17,6.80
2019,10,27,01,18,6.70
2019,10,27,01,19,6.70
2019,10,27,01,20,6.70
2019,10,27,01,21,6.60
2019,10,27,01,22,6.60
2019,10,27,01,23,6.50
2019,10,27,01,24,6.50
2019,10,27,01,25,6.40
2019,10,27,01,26,6.40
2019,10,27,01,27,6.30
2019,10,27,01,28,6.30
2019,10,27,01,29,6.20
2019,10,27,01,30,6.20
2019,10,27,01,31,6.10
2019,10,27,01,32,6.00
2019,10,27,01,33,6.00
2019,10,27,01,34,5.90
2019,10,27,01,35,5.90
2019,10,27,01,36,5.90
2019,10,27,01,37,5.80
2019,10,27,01,38,5.80
2019,10,27,01,39,5.80
2019,10,27,01,40,5.80
2019,10,27,01,41,5.80
2019,10,27,01,42,5.80
2019,10,27,01,43,5.80
2019,10,27,01,44,5.80
2019,10,27,01,45,5.80
2019,10,27,01,46,5.80
2019,10,27,01,47,5.80
2019,10,27,01,48,5.80
2019,10,27,01,49,5.80
2019,10,27,04,56,3.30
2019,10,27,04,57,3.20
2019,10,27,04,58,3.20
2019,10,27,04,59,3.20
2019,10,27,05,00,3.20
2019,10,27,05,01,3.10
2019,10,27,05,02,3.10
2019,10,27,05,03,3.10
2019,10,27,05,04,3.10
2019,10,27,05,05,3.10
2019,10,27,05,06,3.10
2019,10,27,05,07,3.00
2019,10,27,05,08,3.00
2019,10,27,05,09,3.00
2019,10,27,05,10,3.00
2019,10,27,05,11,3.00
2019,10,27,05,12,3.10
2019,10,27,05,13,3.10
2019,10,27,05,14,3.10
2019,10,27,05,15,3.10
2019,10,27,05,16,3.10
2019,10,27,05,17,3.20
2019,10,27,05,18,3.20
2019,10,27,05,19,3.20
2019,10,27,05,20,3.20
2019,10,27,05,21,3.10
2019,10,27,05,22,3.10
2019,10,27,05,23,3.10
2019,10,27,05,24,3.00
2019,10,27,05,25,3.00
2019,10,27,05,26,2.90
2019,10,27,05,27,2.90
2019,10,27,05,28,2.80
2019,10,27,05,29,2.80
2019,10,27,05,30,2.80
2019,10,27,05,31,2.80
2019,10,27,05,32,2.90
2019,10,27,05,33,2.90
2019,10,27,05,34,2.90
2019,10,27,05,35,3.00
2019,10,27,05,36,3.00
2019,10,27,05,37,3.10
2019,10,27,05,38,3.10
2019,10,27,05,39,3.00
2019,10,27,05,40,3.00
2019,10,27,05,41,3.00
2019,10,27,05,42,3.00
2019,10,27,05,43,2.90
2019,10,27,05,44,2.90
2019,10,27,05,45,2.90
2019,10,27,05,46,3.00
2019,10,27,05,47,3.00
2019,10,27,05,48,3.00
2019,10,27,05,49,3.10
2019,10,27,05,50,3.10
2019,10,27,05,51,3.10
2019,10,27,05,52,3.10
2019,10,27,05,53,3.10
2019,10,27,05,54,3.10
2019,10,27,05,55,3.20
2019,10,27,05,56,3.20
2019,10,27,05,57,3.20
2019,10,27,05,58,3.20
2019,10,27,05,59,3.20
2019,10,27,06,00,3.20
2019,10,27,06,01,3.20
2019,10,27,06,02,3.10
2019,10,27,06,03,3.10
2019,10,27,06,04,3.10
2019,10,27,06,05,3.10
2019,10,27,06,06,3.10
2019,10,27,06,07,3.10
2019,10,27,06,08,3.10
2019,10,27,06,09,3.10
2019,10,27,06,10,3.10
2019,10,27,06,11,3.20
2019,10,27,06,12,3.20
2019,10,27,06,13,3.30
2019,10,27,06,14,3.30
2019,10,27,06,15,3.40
2019,10,27,06,16,3.40
2019,10,27,06,17,3.50
2019,10,27,06,18,3.50
2019,10,27,06,19,3.60
2019,10,27,06,20,3.60
2019,10,27,06,21,3.60
2019,10,27,06,22,3.70
2019,10,27,06,23,3.70
2019,10,27,06,24,3.70
2019,10,27,06,25,3.70
2019,10,27,06,26,3.80
2019,10,27,06,27,3.80
2019,10,27,06,28,3.80
2019,10,27,06,29,3.90
2019,10,27,06,30,3.90
2019,10,27,06,31,4.00
2019,10,27,06,32,4.00
2019,10,27,06,33,4.00
2019,10,27,06,34,4.10
2019,10,27,06,35,4.10
2019,10,27,06,36,4.10
2019,10,27,06,37,4.00
2019,10,27,06,38,4.00
2019,10,27,06,39,4.00
2019,10,27,06,40,3.90
2019,10,27,06,41,3.90
2019,10,27,06,42,3.90
2019,10,27,06,43,3.90
2019,10,27,06,44,3.90
2019,10,27,06,45,3.80
2019,10,27,06,46,3.80
2019,10,27,06,47,3.80
2019,10,27,06,48,3.70
2019,10,27,06,49,3.70
2019,10,27,06,50,3.70
2019,10,27,06,51,3.70
2019,10,27,06,52,3.70
2019,10,27,06,53,3.70
2019,10,27,06,54,3.70
2019,10,27,06,55,3.70
2019,10,27,06,56,3.60
2019,10,27,06,57,3.60
2019,10,27,06,58,3.60
2019,10,27,06,59,3.60
2019,10,27,07,00,3.60
2019,10,27,07,01,3.60
2019,10,27,07,02,3.50
2019,10,27,07,03,3.50
2019,10,27,07,04,3.50
2019,10,27,07,05,3.50
2019,10,27,07,06,3.50
2019,10,27,07,07,3.40
2019,10,27,07,08,3.40
2019,10,27,07,09,3.40
2019,10,27,07,10,3.40
2019,10,27,07,11,3.30
2019,10,27,07,12,3.30
2019,10,27,07,13,3.20
2019,10,27,07,14,3.20
2019,10,27,07,15,3.10
2019,10,27,07,16,3.10
2019,10,27,07,17,3.00
2019,10,27,07,18,3.00
2019,10,27,07,19,3.00
2019,10,27,07,20,2.90
2019,10,27,07,21,2.90
2019,10,27,07,22,2.90
2019,10,27,07,23,2.80
2019,10,27,07,24,2.80
2019,10,27,07,25,2.80
2019,10,27,07,26,2.80
2019,10,27,07,27,2.80
2019,10,27,07,28,2.80
2019,10,27,07,29,2.90
2019,10,27,07,30,2.90
2019,10,27,07,31,3.00
2019,10,27,07,32,3.00
2019,10,27,07,33,3.00
2019,10,27,07,34,3.10
2019,10,27,07,35,3.10
2019,10,27,07,36,3.10
2019,10,27,07,37,3.10
2019,10,27,07,38,3.10
2019,10,27,07,39,3.10
2019,10,27,07,40,3.10
2019,10,27,07,41,3.10
2019,10,27,07,42,3.00
2019,10,27,07,43,2.90
2019,10,27,07,44,2.90
2019,10,27,07,45,2.90
2019,10,27,07,46,2.80
2019,10,27,07,47,2.80
2019,10,27,07,48,2.80
2019,10,27,07,49,2.70
2019,10,27,07,50,2.70
2019,10,27,07,51,2.70
2019,10,27,07,52,2.60
2019,10,27,07,53,2.60
2019,10,27,07,54,2.60
2019,10,27,07,55,2.60
2019,10,27,07,56,2.60
2019,10,27,07,57,2.60
2019,10,27,07,58,2.50
2019,10,27,07,59,2.50
2019,10,27,08,00,2.40
2019,10,27,08,01,2.30
2019,10,27,08,02,2.30
2019,10,27,08,03,2.20
2019,10,27,08,04,2.20
2019,10,27,08,05,2.10
2019,10,27,08,06,2.10
2019,10,27,08,07,2.00
2019,10,27,08,08,2.00
2019,10,27,08,09,2.00
2019,10,27,08,10,2.00
2019,10,27,08,11,1.90
2019,10,27,08,12,1.90
2019,10,27,08,13,1.90
2019,10,27,08,14,1.90
2019,10,27,08,15,1.90
2019,10,27,08,16,1.90
2019,10,27,08,17,1.90
2019,10,27,08,18,1.90
2019,10,27,08,19,1.90
2019,10,27,08,20,1.90
2019,10,27,08,21,1.90
2019,10,27,08,22,1.90
2019,10,27,08,23,1.90
2019,10,27,08,24,1.90
2019,10,27,08,25,1.90
2019,10,27,08,26,1.90
2019,10,27,08,27,1.80
2019,10,27,08,28,1.80
2019,10,27,08,29,1.80
2019,10,27,08,30,1.80
2019,10,27,08,31,1.80
2019,10,27,08,32,1.80
2019,10,27,08,33,1.80
2019,10,27,08,34,1.80
2019,10,27,08,35,1.70
2019,10,27,08,36,1.70
2019,10,27,08,37,1.70
2019,10,27,08,38,1.70
2019,10,27,08,39,1.70
2019,10,27,08,40,1.70
2019,10,27,08,41,1.80
2019,10,27,08,42,1.80
2019,10,27,08,43,1.80
2019,10,27,08,44,1.80
2019,10,27,08,45,1.80
2019,10,27,08,46,1.90
2019,10,27,08,47,1.90
2019,10,27,08,48,2.00
2019,10,27,08,49,2.00
2019,10,27,08,50,2.10
2019,10,27,08,51,2.10
2019,10,27,08,52,2.10
2019,10,27,08,53,2.10
2019,10,27,08,54,2.10
2019,10,27,08,55,2.10
2019,10,27,08,56,2.10
2019,10,27,08,57,2.20
2019,10,27,08,58,2.20
2019,10,27,08,59,2.30
2019,10,27,09,00,2.40
2019,10,27,09,01,2.40
2019,10,27,09,02,2.50
2019,10,27,09,03,2.60
2019,10,27,09,04,2.70
2019,10,27,09,05,2.70
2019,10,27,09,06,2.70
2019,10,27,09,07,2.80
2019,10,27,09,08,2.90
2019,10,27,09,09,2.90
2019,10,27,09,10,2.90
2019,10,27,09,11,3.00
2019,10,27,09,12,3.10
2019,10,27,09,13,3.10
2019,10,27,09,14,3.10
2019,10,27,09,15,3.20
2019,10,27,09,16,3.20
2019,10,27,09,17,3.30
2019,10,27,09,18,3.30
2019,10,27,09,19,3.30
2019,10,27,09,20,3.40
2019,10,27,09,21,3.50
2019,10,27,09,22,3.50
2019,10,27,09,23,3.60
2019,10,27,09,24,3.70
2019,10,27,09,25,3.80
2019,10,27,09,26,3.90
2019,10,27,09,27,4.00
2019,10,27,09,28,4.10
2019,10,27,09,29,4.10
2019,10,27,09,30,4.20
2019,10,27,09,31,4.30
2019,10,27,09,32,4.30
2019,10,27,09,33,4.30
2019,10,27,09,34,4.40
2019,10,27,09,35,4.40
2019,10,27,09,36,4.50
2019,10,27,09,37,4.60
2019,10,27,09,38,4.70
2019,10,27,09,39,4.80
2019,10,27,09,40,4.80
2019,10,27,09,41,4.90
2019,10,27,09,42,5.00
2019,10,27,09,43,5.00
2019,10,27,09,44,5.10
2019,10,27,09,45,5.10
2019,10,27,09,46,5.20
2019,10,27,09,47,5.30
2019,10,27,09,48,5.40
2019,10,27,09,49,5.60
2019,10,27,09,50,5.70
2019,10,27,09,51,5.70
2019,10,27,09,52,5.90
2019,10,27,09,53,5.90
2019,10,27,09,54,5.90
2019,10,27,09,55,5.90
2019,10,27,09,56,5.90
2019,10,27,09,57,5.90
2019,10,27,09,58,5.90
2019,10,27,09,59,6.00
2019,10,27,10,00,6.00
2019,10,27,10,01,6.00
2019,10,27,10,02,6.10
2019,10,27,10,03,6.10
2019,10,27,10,04,6.10
2019,10,27,10,05,6.10
2019,10,27,10,06,6.20
2019,10,27,10,07,6.20
2019,10,27,10,08,6.30
2019,10,27,10,09,6.30
2019,10,27,10,10,6.30
2019,10,27,10,11,6.30
2019,10,27,10,12,6.40
2019,10,27,10,13,6.40
2019,10,27,10,14,6.40
2019,10,27,10,15,6.50
2019,10,27,10,16,6.50
2019,10,27,10,17,6.50
2019,10,27,10,18,6.50
2019,10,27,10,19,6.60
2019,10,27,10,20,6.60
2019,10,27,10,21,6.60
2019,10,27,10,22,6.60
2019,10,27,10,23,6.70
2019,10,27,10,24,6.70
2019,10,27,10,25,6.70
2019,10,27,10,26,6.70
2019,10,27,10,27,6.80
2019,10,27,10,28,6.80
2019,10,27,10,29,6.80
2019,10,27,10,30,6.80
2019,10,27,10,31,6.90
2019,10,27,10,32,6.90
2019,10,27,10,33,7.00
2019,10,27,10,34,7.00
2019,10,27,10,35,7.00
2019,10,27,10,36,7.00
2019,10,27,10,37,7.10
2019,10,27,10,38,7.10
2019,10,27,10,39,7.10
2019,10,27,10,40,7.10
2019,10,27,10,41,7.10
2019,10,27,10,42,7.10
2019,10,27,10,43,7.20
2019,10,27,10,44,7.20
2019,10,27,10,45,7.20
2019,10,27,10,46,7.20
2019,10,27,10,47,7.20
2019,10,27,10,48,7.30
2019,10,27,10,49,7.30
2019,10,27,10,50,7.30
2019,10,27,10,51,7.40
2019,10,27,10,52,7.40
2019,10,27,10,53,7.40
2019,10,27,10,54,7.50
2019,10,27,10,55,7.50
2019,10,27,10,56,7.60
2019,10,27,10,57,7.60
2019,10,27,10,58,7.70
2019,10,27,10,59,7.70
2019,10,27,11,00,7.80
2019,10,27,11,01,7.80
2019,10,27,11,02,7.80
2019,10,27,11,03,7.80
2019,10,27,11,04,7.90
2019,10,27,11,05,7.90
2019,10,27,11,06,7.90
2019,10,27,11,07,8.00
2019,10,27,11,08,8.00
2019,10,27,11,09,8.10
2019,10,27,11,10,8.10
2019,10,27,11,11,8.10
2019,10,27,11,12,8.20
2019,10,27,11,13,8.20
2019,10,27,11,14,8.20
2019,10,27,11,15,8.20
2019,10,27,11,16,8.30
2019,10,27,11,17,8.30
2019,10,27,11,18,8.30
2019,10,27,11,19,8.40
2019,10,27,11,20,8.40
2019,10,27,11,21,8.40
2019,10,27,11,22,8.40
2019,10,27,11,23,8.40
2019,10,27,11,24,8.40
2019,10,27,11,25,8.40
2019,10,27,11,26,8.40
2019,10,27,11,27,8.50
2019,10,27,11,28,8.50
2019,10,27,11,29,8.60
2019,10,27,11,30,8.60
2019,10,27,11,31,8.60
2019,10,27,11,32,8.70
2019,10,27,11,33,8.70
2019,10,27,11,34,8.70
2019,10,27,11,35,8.80
2019,10,27,11,36,8.80
2019,10,27,11,37,8.90
2019,10,27,11,38,8.90
2019,10,27,11,39,9.00
2019,10,27,11,40,9.10
2019,10,27,11,41,9.10
2019,10,27,11,42,9.20
2019,10,27,11,43,9.30
2019,10,27,11,44,9.30
2019,10,27,11,45,9.30
2019,10,27,11,46,9.30
2019,10,27,11,47,9.40
2019,10,27,11,48,9.40
2019,10,27,11,49,9.40
2019,10,27,11,50,9.50
2019,10,27,11,51,9.50
2019,10,27,11,52,9.50
2019,10,27,11,53,9.50
2019,10,27,11,54,9.50
2019,10,27,11,55,9.60
2019,10,27,11,56,9.70
2019,10,27,11,57,9.70
2019,10,27,11,58,9.70
2019,10,27,11,59,9.70
2019,10,27,12,00,9.70
2019,10,27,12,01,9.70
2019,10,27,12,02,9.70
2019,10,27,12,03,9.70
2019,10,27,12,04,9.70
2019,10,27,12,05,9.80
2019,10,27,12,06,9.80
2019,10,27,12,07,9.90
2019,10,27,12,08,9.90
2019,10,27,12,09,10.00
2019,10,27,12,10,10.10
2019,10,27,12,11,10.10
2019,10,27,12,12,10.20
2019,10,27,12,13,10.20
2019,10,27,12,14,10.20
2019,10,27,12,15,10.20
2019,10,27,12,16,10.20
2019,10,27,12,17,10.20
2019,10,27,12,18,10.20
2019,10,27,12,19,10.30
2019,10,27,12,20,10.30
2019,10,27,12,21,10.40
2019,10,27,12,22,10.40
2019,10,27,12,23,10.40
2019,10,27,12,24,10.40
2019,10,27,12,25,10.50
2019,10,27,12,26,10.50
2019,10,27,12,27,10.50
2019,10,27,12,28,10.60
2019,10,27,12,29,10.60
2019,10,27,12,30,10.60
2019,10,27,12,31,10.60
2019,10,27,12,32,10.50
2019,10,27,12,33,10.50
2019,10,27,12,34,10.60
2019,10,27,12,35,10.60
2019,10,27,12,36,10.60
2019,10,27,12,37,10.60
2019,10,27,12,38,10.60
2019,10,27,12,39,10.60
2019,10,27,12,40,10.70
2019,10,27,12,41,10.70
2019,10,27,12,42,10.70
2019,10,27,12,43,10.70
2019,10,27,12,44,10.70
2019,10,27,12,45,10.70
2019,10,27,12,46,10.70
2019,10,27,12,47,10.70
2019,10,27,12,48,10.70
2019,10,27,12,49,10.70
2019,10,27,12,50,10.70
2019,10,27,12,51,10.70
2019,10,27,12,52,10.70
2019,10,27,12,53,10.70
2019,10,27,12,54,10.70
2019,10,27,12,55,10.70
2019,10,27,12,56,10.70
2019,10,27,12,57,10.70
2019,10,27,12,58,10.70
2019,10,27,12,59,10.70
2019,10,27,13,00,10.70
2019,10,27,13,01,10.80
2019,10,27,13,02,10.80
2019,10,27,13,03,10.90
2019,10,27,13,04,10.90
2019,10,27,13,05,10.90
2019,10,27,13,06,10.90
2019,10,27,13,07,10.90
2019,10,27,13,08,10.90
2019,10,27,13,09,10.90
2019,10,27,13,10,10.90
2019,10,27,13,11,10.90
2019,10,27,13,12,11.00
2019,10,27,13,13,11.00
2019,10,27,13,14,11.10
2019,10,27,13,15,11.10
2019,10,27,13,16,11.10
2019,10,27,13,17,11.10
2019,10,27,13,18,11.10
2019,10,27,13,19,11.10
2019,10,27,13,20,11.10
2019,10,27,13,21,11.10
2019,10,27,13,22,11.10
2019,10,27,13,23,11.10
2019,10,27,13,24,11.10
2019,10,27,13,25,11.10
2019,10,27,13,26,11.20
2019,10,27,13,27,11.20
2019,10,27,13,28,11.20
2019,10,27,13,29,11.20
2019,10,27,13,30,11.20
2019,10,27,13,31,11.30
2019,10,27,13,32,11.30
2019,10,27,13,33,11.30
2019,10,27,13,34,11.30
2019,10,27,13,35,11.30
2019,10,27,13,36,11.30
2019,10,27,13,37,11.30
2019,10,27,13,38,11.30
2019,10,27,13,39,11.40
2019,10,27,13,40,11.40
2019,10,27,13,41,11.30
2019,10,27,13,42,11.30
2019,10,27,13,43,11.40
2019,10,27,13,44,11.40
2019,10,27,13,45,11.40
2019,10,27,13,46,11.40
2019,10,27,13,47,11.40
2019,10,27,13,48,11.40
2019,10,27,13,49,11.40
2019,10,27,13,50,11.40
2019,10,27,13,51,11.40
2019,10,27,13,52,11.40
2019,10,27,13,53,11.40
2019,10,27,13,54,11.40
2019,10,27,13,55,11.40
2019,10,27,13,56,11.50
2019,10,27,13,57,11.50
2019,10,27,13,58,11.60
2019,10,27,13,59,11.60
2019,10,27,14,00,11.60
2019,10,27,14,01,11.70
2019,10,27,14,02,11.70
2019,10,27,14,03,11.80
2019,10,27,14,04,11.80
2019,10,27,14,05,11.80
2019,10,27,14,06,11.80
2019,10,27,14,07,11.80
2019,10,27,14,08,11.80
2019,10,27,14,09,11.80
2019,10,27,14,10,11.80
2019,10,27,14,11,11.80
2019,10,27,14,12,11.80
2019,10,27,14,13,11.80
2019,10,27,14,14,11.80
2019,10,27,14,15,11.90
2019,10,27,14,16,11.90
2019,10,27,14,17,11.90
2019,10,27,14,18,11.90
2019,10,27,14,19,11.90
2019,10,27,14,20,11.90
2019,10,27,14,21,11.90
2019,10,27,14,22,11.90
2019,10,27,14,23,12.00
2019,10,27,14,24,12.00
2019,10,27,14,25,12.10
2019,10,27,14,26,12.10
2019,10,27,14,27,12.10
2019,10,27,14,28,12.10
2019,10,27,14,29,12.10
2019,10,27,14,30,12.10
2019,10,27,14,31,12.20
2019,10,27,14,32,12.10
2019,10,27,14,33,12.00
2019,10,27,14,34,12.00
2019,10,27,14,35,11.90
2019,10,27,14,36,11.90
2019,10,27,14,37,11.80
2019,10,27,14,38,11.80
2019,10,27,14,39,11.80
2019,10,27,14,40,11.80
2019,10,27,14,41,11.80
2019,10,27,14,42,11.80
2019,10,27,14,43,11.80
2019,10,27,14,44,11.70
2019,10,27,14,45,11.70
2019,10,27,14,46,11.70
2019,10,27,14,47,11.70
2019,10,27,14,48,11.70
2019,10,27,14,49,11.70
2019,10,27,14,50,11.70
2019,10,27,14,51,11.60
2019,10,27,14,52,11.60
2019,10,27,14,53,11.50
2019,10,27,14,54,11.40
2019,10,27,14,55,11.40
2019,10,27,14,56,11.40
2019,10,27,14,57,11.30
2019,10,27,14,58,11.30
2019,10,27,14,59,11.20
2019,10,27,15,00,11.20
2019,10,27,15,01,11.20
2019,10,27,15,02,11.20
2019,10,27,15,03,11.20
2019,10,27,15,04,11.20
2019,10,27,15,05,11.20
2019,10,27,15,06,11.20
2019,10,27,15,07,11.20
2019,10,27,15,08,11.30
2019,10,27,15,09,11.30
2019,10,27,15,10,11.30
2019,10,27,15,11,11.30
2019,10,27,15,12,11.30
2019,10,27,15,13,11.30
2019,10,27,15,14,11.30
2019,10,27,15,15,11.40
2019,10,27,15,16,11.40
2019,10,27,15,17,11.40
2019,10,27,15,18,11.40
2019,10,27,15,19,11.40
2019,10,27,15,20,11.40
2019,10,27,15,21,11.40
2019,10,27,15,22,11.40
2019,10,27,15,23,11.50
2019,10,27,15,24,11.50
2019,10,27,15,25,11.60
2019,10,27,15,26,11.60
2019,10,27,15,27,11.60
2019,10,27,15,28,11.60
2019,10,27,15,29,11.70
2019,10,27,15,30,11.70
2019,10,27,15,31,11.70
2019,10,27,15,32,11.70
2019,10,27,15,33,11.70
2019,10,27,15,34,11.70
2019,10,27,15,35,11.70
2019,10,27,15,36,11.70
2019,10,27,15,37,11.70
2019,10,27,15,38,11.70
2019,10,27,15,39,11.70
2019,10,27,15,40,11.70
2019,10,27,15,41,11.70
2019,10,27,15,42,11.70
2019,10,27,15,43,11.70
2019,10,27,15,44,11.70
2019,10,27,15,45,11.60
2019,10,27,15,46,11.60
2019,10,27,15,47,11.60
2019,10,27,15,48,11.60
2019,10,27,15,49,11.60
2019,10,27,15,50,11.60
2019,10,27,15,51,11.50
2019,10,27,15,52,11.60
2019,10,27,15,53,11.60
2019,10,27,15,54,11.60
2019,10,27,15,55,11.70
2019,10,27,15,56,11.70
2019,10,27,15,57,11.70
2019,10,27,15,58,11.70
2019,10,27,15,59,11.70
2019,10,27,16,00,11.70
2019,10,27,16,01,11.80
2019,10,27,16,02,11.80
2019,10,27,16,03,11.80
2019,10,27,16,04,11.80
2019,10,27,16,05,11.80
2019,10,27,16,06,11.80
2019,10,27,16,07,11.80
2019,10,27,16,08,11.80
2019,10,27,16,09,11.80
2019,10,27,16,10,11.80
2019,10,27,16,11,11.80
2019,10,27,16,12,11.80
2019,10,27,16,13,11.80
2019,10,27,16,14,11.80
2019,10,27,16,15,11.80
2019,10,27,16,16,11.90
2019,10,27,16,17,11.90
2019,10,27,16,18,11.90
2019,10,27,16,19,11.90
2019,10,27,16,20,12.00
2019,10,27,16,21,12.00
2019,10,27,16,22,12.10
2019,10,27,16,23,12.10
2019,10,27,16,24,12.10
2019,10,27,16,25,12.10
2019,10,27,16,26,12.10
2019,10,27,16,27,12.10
2019,10,27,16,28,12.10
2019,10,27,16,29,12.10
2019,10,27,16,30,12.10
2019,10,27,16,31,12.10
2019,10,27,16,32,12.10
2019,10,27,16,33,12.20
2019,10,27,16,34,12.20
2019,10,27,16,35,12.20
2019,10,27,16,36,12.20
2019,10,27,16,37,12.10
2019,10,27,16,38,12.10
2019,10,27,16,39,12.10
2019,10,27,16,40,12.00
2019,10,27,16,41,12.00
2019,10,27,16,42,11.90
2019,10,27,16,43,11.90
2019,10,27,16,44,11.90
2019,10,27,16,45,11.90
2019,10,27,16,46,11.90
2019,10,27,16,47,11.90
2019,10,27,16,48,11.90
2019,10,27,16,49,11.80
2019,10,27,16,50,11.80
2019,10,27,16,51,11.90
2019,10,27,16,52,11.90
2019,10,27,16,53,11.90
2019,10,27,16,54,11.80
2019,10,27,16,55,11.80
2019,10,27,16,56,11.80
2019,10,27,16,57,11.80
2019,10,27,16,58,11.80
2019,10,27,16,59,11.80
2019,10,27,17,00,11.80
2019,10,27,17,01,11.80
2019,10,27,17,02,11.90
2019,10,27,17,03,11.90
2019,10,27,17,04,12.00
2019,10,27,17,05,12.00
2019,10,27,17,06,11.90
2019,10,27,17,07,11.90
2019,10,27,17,08,11.90
2019,10,27,17,09,11.80
2019,10,27,17,10,11.80
2019,10,27,17,11,11.70
2019,10,27,17,12,11.70
2019,10,27,17,13,11.50
2019,10,27,17,14,11.40
2019,10,27,17,15,11.30
2019,10,27,17,16,11.20
2019,10,27,17,17,11.00
2019,10,27,17,18,10.90
2019,10,27,17,19,10.80
2019,10,27,17,20,10.70
2019,10,27,17,21,10.60
2019,10,27,17,22,10.50
2019,10,27,17,23,10.40
2019,10,27,17,24,10.40
2019,10,27,17,25,10.30
2019,10,27,17,26,10.30
2019,10,27,17,27,10.20
2019,10,27,17,28,10.10
2019,10,27,17,29,10.00
2019,10,27,17,30,9.90
2019,10,27,17,31,9.90
2019,10,27,17,32,9.80
2019,10,27,17,33,9.80
2019,10,27,17,34,9.70
2019,10,27,17,35,9.60
2019,10,27,17,36,9.50
2019,10,27,17,37,9.50
2019,10,27,17,38,9.40
2019,10,27,17,39,9.40
2019,10,27,17,40,9.30
2019,10,27,17,41,9.20
2019,10,27,17,42,9.20
2019,10,27,17,43,9.10
2019,10,27,17,44,9.10
2019,10,27,17,45,9.00
2019,10,27,17,46,9.00
2019,10,27,17,47,8.90
2019,10,27,17,48,8.90
2019,10,27,17,49,8.80
2019,10,27,17,50,8.80
2019,10,27,17,51,8.70
2019,10,27,17,52,8.70
2019,10,27,17,53,8.60
2019,10,27,17,54,8.60
2019,10,27,17,55,8.50
2019,10,27,17,56,8.50
2019,10,27,17,57,8.40
2019,10,27,17,58,8.40
2019,10,27,17,59,8.30
2019,10,27,18,00,8.30
2019,10,27,18,01,8.30
2019,10,27,18,02,8.30
2019,10,27,18,03,8.30
2019,10,27,18,04,8.30
2019,10,27,18,05,8.20
2019,10,27,18,06,8.20
2019,10,27,18,07,8.20
2019,10,27,18,08,8.20
2019,10,27,18,09,8.20
2019,10,27,18,10,8.10
2019,10,27,18,11,8.10
2019,10,27,18,12,8.10
2019,10,27,18,13,8.10
2019,10,27,18,14,8.00
2019,10,27,18,15,8.00
2019,10,27,18,16,8.00
2019,10,27,18,17,7.90
2019,10,27,18,18,7.90
2019,10,27,18,19,7.90
2019,10,27,18,20,7.80
2019,10,27,18,21,7.80
2019,10,27,18,22,7.80
2019,10,27,18,23,7.70
2019,10,27,18,24,7.70
2019,10,27,18,25,7.70
2019,10,27,18,26,7.70
2019,10,27,18,27,7.70
2019,10,27,18,28,7.70
2019,10,27,18,29,7.70
2019,10,27,18,30,7.70
2019,10,27,18,31,7.70
2019,10,27,18,32,7.70
2019,10,27,18,33,7.60
2019,10,27,18,34,7.60
2019,10,27,18,35,7.60
2019,10,27,18,36,7.60
2019,10,27,18,37,7.60
2019,10,27,18,38,7.50
2019,10,27,18,39,7.50
2019,10,27,18,40,7.40
2019,10,27,18,41,7.40
2019,10,27,18,42,7.40
2019,10,27,18,43,7.30
2019,10,27,18,44,7.20
2019,10,27,18,45,7.20
2019,10,27,18,46,7.10
2019,10,27,18,47,7.10
2019,10,27,18,48,7.00
2019,10,27,18,49,6.90
2019,10,27,18,50,6.90
2019,10,27,18,51,6.90
2019,10,27,18,52,6.80
2019,10,27,18,53,6.80
2019,10,27,18,54,6.70
2019,10,27,18,55,6.70
2019,10,27,18,56,6.70
2019,10,27,18,57,6.60
2019,10,27,18,58,6.60
2019,10,27,18,59,6.60
2019,10,27,19,00,6.50
2019,10,27,19,01,6.50
2019,10,27,19,02,6.40
2019,10,27,19,03,6.40
2019,10,27,19,04,6.40
2019,10,27,19,05,6.40
2019,10,27,19,06,6.40
2019,10,27,19,07,6.30
2019,10,27,19,08,6.30
2019,10,27,19,09,6.30
2019,10,27,19,10,6.30
2019,10,27,19,11,6.20
2019,10,27,19,12,6.20
2019,10,27,19,13,6.20
2019,10,27,19,14,6.10
2019,10,27,19,15,6.00
2019,10,27,19,16,6.00
2019,10,27,19,17,5.90
2019,10,27,19,18,5.90
2019,10,27,19,19,5.80
2019,10,27,19,20,5.80
2019,10,27,19,21,5.80
2019,10,27,19,22,5.80
2019,10,27,19,23,5.70
2019,10,27,19,24,5.70
2019,10,27,19,25,5.70
2019,10,27,19,26,5.70
2019,10,27,19,27,5.70
2019,10,27,19,28,5.60
2019,10,27,19,29,5.60
2019,10,27,19,30,5.60
2019,10,27,19,31,5.50
2019,10,27,19,32,5.50
2019,10,27,19,33,5.50
2019,10,27,19,34,5.50
2019,10,27,19,35,5.50
2019,10,27,19,36,5.50
2019,10,27,19,37,5.50
2019,10,27,19,38,5.50
2019,10,27,19,39,5.50
2019,10,27,19,40,5.50
2019,10,27,19,41,5.40
2019,10,27,19,42,5.40
2019,10,27,19,43,5.40
2019,10,27,19,44,5.40
2019,10,27,19,45,5.40
2019,10,27,19,46,5.40
2019,10,27,19,47,5.40
2019,10,27,19,48,5.40
2019,10,27,19,49,5.40
2019,10,27,19,50,5.40
2019,10,27,19,51,5.30
2019,10,27,19,52,5.30
2019,10,27,19,53,5.30
2019,10,27,19,54,5.30
2019,10,27,19,55,5.30
2019,10,27,19,56,5.30
2019,10,27,19,57,5.20
2019,10,27,19,58,5.20
2019,10,27,19,59,5.20
2019,10,27,20,00,5.20
2019,10,27,20,01,5.20
2019,10,27,20,02,5.20
2019,10,27,20,03,5.20
2019,10,27,20,04,5.20
2019,10,27,20,05,5.20
2019,10,27,20,06,5.20
2019,10,27,20,07,5.10
2019,10,27,20,08,5.10
2019,10,27,20,09,5.10
2019,10,27,20,10,5.10
2019,10,27,20,11,5.10
2019,10,27,20,12,5.10
2019,10,27,20,13,5.00
2019,10,27,20,14,5.00
2019,10,27,20,15,5.00
2019,10,27,20,16,5.00
2019,10,27,20,17,4.90
2019,10,27,20,18,4.90
2019,10,27,20,19,4.90
2019,10,27,20,20,4.90
2019,10,27,20,21,4.90
2019,10,27,20,22,4.90
2019,10,27,20,23,5.00
2019,10,27,20,24,5.00
2019,10,27,20,25,5.10
2019,10,27,20,26,5.20
2019,10,27,20,27,5.30
2019,10,27,20,28,5.40
2019,10,27,20,29,5.60
2019,10,27,20,30,5.80
2019,10,27,20,31,6.00
2019,10,27,20,32,6.30
2019,10,27,20,33,6.50
2019,10,27,20,34,6.70
2019,10,27,20,35,6.80
2019,10,27,20,36,6.90
2019,10,27,20,37,6.90
2019,10,27,20,38,6.90
2019,10,27,20,39,7.00
2019,10,27,20,40,6.90
2019,10,27,20,41,6.90
2019,10,27,20,42,6.90
2019,10,27,20,43,6.80
2019,10,27,20,44,6.80
2019,10,27,20,45,6.80
2019,10,27,20,46,6.70
2019,10,27,20,47,6.70
2019,10,27,20,48,6.60
2019,10,27,20,49,6.60
2019,10,27,20,50,6.50
2019,10,27,20,51,6.40
2019,10,27,20,52,6.40
2019,10,27,20,53,6.30
2019,10,27,20,54,6.30
2019,10,27,20,55,6.20
2019,10,27,20,56,6.20
2019,10,27,20,57,6.20
2019,10,27,20,58,6.20